Terminal Aerodrome Forecast
Issued by NWS

Home | Current Version | Previous Version | Text Only | Print | Product List | Glossary On
Versions: 1 2 3 4 5 6 7 8 9 10 11 12 13 14 15 16 17 18 19 20 21 22 23 24 25 26 27 28 29 30 31 32 33
000
FTUS45 KBOU 221128
TAFAPA
TAF
KAPA 221128Z 2212/2312 15006KT P6SM FEW220
     FM221500 35008KT P6SM FEW220
     FM221800 02009KT P6SM FEW110 SCT220
     FM222100 08011KT P6SM SCT100 BKN180
     FM230100 14009KT P6SM FEW100 BKN220
     FM230600 17008KT P6SM FEW110 SCT200=

USA.gov is the U.S. government's official web portal to all federal, state and local government web resources and services.